RJFTRJOM

Guest
Details From RJFT - KUMAMOTO
To RJOM - MATSUYAMA
Flight Number -
Tags generated
Created
Modified
Stats Distance 110 nm / 204 km
Max Altitude 8,000 ft / 2,438 m
Waypoints 4
Social Downloads 1
Likes 0
Share VATSIM

Download

Looking for another format? Having issues loading an existing format? Contact us
Advertisement - Login to hide

Notes

Basic altitude profile: - Ascent Rate: 2500ft/min - Ascent Speed: 250kts - Cruise Altitude: 35000ft - Cruise Speed: 420kts - Descent Rate: 1500ft/min - Descent Speed: 250kts Options: - Use NATs: yes - Use PACOTS: yes - Use low airways: yes - Use high airways: yes

Route

RJFT TUJUN V40 ASONO RJOM

ID Type Via Altitude Latitude Longitude Leg Dist Tot Dist Heading (true) Name
O RJFT APT - 0 ft / 0 m 32.83732˚ 130.85505˚ - 0 nm - KUMAMOTO
TUJUN FIX - 1,100 ft / 335 m 32.86618˚ 130.91152˚ 3 nm 3 nm 59° / 59° -
ASONO FIX V40 (AWY-LO) 8,000 ft / 2,438 m 33.01614˚ 131.24706˚ 19 nm 22 nm 62° / 62° -
O RJOM APT - 0 ft / 0 m 33.82726˚ 132.69963˚ 87 nm 110 nm 56° / 57° MATSUYAMA

Altitude Profile

Advertisement - Login to hide

RJFT

Details ICAO RJFT (KMJ)
Name KUMAMOTO
Region Japan
Timezone Asia/Tokyo (UTC+9.0)
Stats Elevation 642 ft / 196 m (AMSL)
Location 32.837318° 130.855052°
Runways 1
Magnetic Variation 7.258° W

METAR

RJFT 202300Z 07016KT 9999 FEW025 BKN080 19/13 Q1016

Decode

TAF

TAF RJFT 201708Z 2018/2200 36008KT 8000 -RA FEW030 SCT050 BECMG 2021/2023 06016KT TEMPO 2103/2109 09016G26KT

Decode

Departure Runways

ID Width Length Bearing (true) Bearing (mag) Surface Threshold Offset Overrun Length
07 150 ft / 46 m 9,833 ft / 2,997 m 64.47° 71.73° Asphalt 0 ft / 0 m 200 ft / 61 m
25 150 ft / 46 m 9,833 ft / 2,997 m 244.49° 251.75° Asphalt 0 ft / 0 m 200 ft / 61 m

RJOM

Details ICAO RJOM (MYJ)
Name MATSUYAMA
Region Japan
Timezone Asia/Tokyo (UTC+9.0)
Stats Elevation 25 ft / 8 m (AMSL)
Location 33.827257° 132.699631°
Runways 1
Magnetic Variation 7.545° W

METAR

RJOM 202300Z 34004KT 9999 FEW030 20/14 Q1018

Decode

TAF

TAF AMD RJOM 202136Z 2021/2200 35008KT 9999 FEW030 SCT050 BECMG 2106/2109 12006KT BECMG 2121/2200 35008KT

Decode

Destination Runways

ID Width Length Bearing (true) Bearing (mag) Surface Threshold Offset Overrun Length
14 150 ft / 46 m 8,203 ft / 2,500 m 130.67° 138.21° Asphalt 0 ft / 0 m 206 ft / 63 m
32 150 ft / 46 m 8,203 ft / 2,500 m 310.68° 318.22° Asphalt 0 ft / 0 m 195 ft / 59 m

Popular Alternatives